Погода в Иртышске

Погода в Иртышске : погода сейчас, прогноз погоды и архив. Всё, что Вы хотите узнать о погоде в Иртышске!

Хотите узнать прогноз погоды в Иртышске? Тогда Вам сюда: Погода в Иртышске

Поиск расширенной информации на нашем сайте:

Другие новости

Новости СМИ2

Главная страница сайта

Новости сайта

03.07.2017

Напоминаем, что на нашем специализированном сайте Метеоцентр.Азия вы можете получить высокодетализированные автоматические прогнозы погоды по пунктам России, СНГ и мира в авиационном формате (включающие направление и скорость ветра, видимость, явления погоды, количество и форму облачности, нижнюю и верхнюю границу облачности).


Погода в Иртышске - сегодня

Время (UTC), дата Ветер
(°,м/с) 
Видим.   Явления Облачность Т
(°С)
Тd
(°С)
f(%) Тe
(°С)
Pmin
(гПа)
dP
(гПа)
Po
(мм)
O2
(г/м3)
Тmin Tmax R s Состояние
почвы
18 16.10.17 280 (З) н/о    10/10 600 м 
[Sc]
+5.3 +3.6 89 +6  1021.4  0.7  757  299    +6.9       
21 16.10.17 300 (СЗ) н/о    10/10 600 м 
[Sc]
+5 +3.5 90 +6  1021.5  0.1  757  299           
00 17.10.17 тихо ()   н/о    10/10 600 м 
[Sc]
+4.9 +3.7 92 +5  1021.8  0.2  758  299           
03 17.10.17 100 (В) 10 км    10/10 600 м 
[Sc]
+5 +3.8 92 +6  1021.9  0.1  758  299           
06 17.10.17 120 (ЮВ) 10 км    10/10 600 м 
[Sc]
+6.4 +3.3 81 +6  1021.2  -0.5  757  298  +4.8         
09 17.10.17 100 (В) 10 км    3/0 верхняя 
[Ci fib]
+9.5 +3.5 66 +10  1019.3  -1.8  756  294           
12 17.10.17 080 (В) 10 км    4/0 верхняя 
[Ci fib]
+8.2 +3.3 71 +8  1018.3  -1.1  755  295           
15 17.10.17 070 (В) н/о    ясно 
+4.6 +2.9 89 +3  1017.2  -1.2  754  298    +9.6       
18 17.10.17 090 (В) н/о    ясно 
+5.6 +2.4 80 +4  1015.2  -2  753  297    +9.6       
21 17.10.17 110 (В) н/о    ясно 
+5 +2 81 +3  1013.5  -1.7  751  297           
00 18.10.17 120 (ЮВ) н/о    ясно 
+3.2 +1.1 86 +3  1012.1  -1.4  750  299           
03 18.10.17 070 (В) 10 км    8/3 600 м верхняя 
[Sc|Ci sp]
+3.6 +1 83 +2  1011.3  -0.8  750  298           
06 18.10.17 110 (В) 10 км    8/4 1000 м кучево-дожд., средняя 
[Cb calv|Ac trans]
+10.2 +2.5 59 +9  1010.1  -0.9  749  291  +2.8         
09 18.10.17 100 (В) 10 км    9/9 1000 м кучево-дожд. 
[Cb calv]
+11.3 +2.2 53 +10  1007.8  -2.3  747  289           
12 18.10.17 120 (ЮВ) 10 км  слаб. ливневой дождь  10/10 600 м кучево-дожд. 
[Cb calv]
+9.6 +4.4 70 +10  1008.4  0.6  748  290           
15 18.10.17 180 (Ю) н/о  {ливн. осадки}  10/10 600 м кучево-дожд. 
[Cb calv]
+8.4 +6.7 89 +8  1009.3  0.9  749  291    +11.5  0.4     
18 18.10.17 200 (Ю) н/о  ливневой дождь  10/10 600 м кучево-дожд. 
[Cb calv]
+8.1 +7.2 94 +7  1010.2  0.9  749  292    +11.5  0.4     
21 18.10.17 200 (Ю) н/о  {ливн. осадки}  10/10 600 м кучево-дожд. 
[Cb calv]
+7.1 +5.8 91 +6  1010.7  0.4  749  293           
00 19.10.17 210 (ЮЗ) н/о  {ливн. осадки}  10/10 600 м кучево-дожд. 
[Cb calv]
+5.6 +3.7 88 +5  1011.1  0.3  750  295           
03 19.10.17 210 (ЮЗ) 10 км    6/0 верхняя 
[Ci fib]
+4.1 +2.4 89 +4  1011.1  750  297         
06 19.10.17 210 (ЮЗ) 10 км    6/3 600 м верхняя 
[Cu hum|Ci fib]
+10.3 +4.5 67 +9  1008  -2.9  748  290  +4       
09 19.10.17 180 (Ю) 10 км    8/4 600 м кучево-дожд., средняя 
[Cb calv|Ac trans]
+10.7 +3.2 60 +10  1005.9  -2  746  289           
12 19.10.17 140 (ЮВ) 10 км  в посл. час ливневой дождь  9/6 600 м кучево-дожд., средняя 
[Cb calv|Ac trans]
+6.8 +5.2 90 +7  1005.3  -0.7  746  292           
15 19.10.17 140 (ЮВ) н/о    6/0 средняя 
[Ac trans]
+5.6 +3.7 88 +5  1005.1  -0.3  745  294    +10.8  0.6     
18 19.10.17 тихо ()   н/о    10/10 600 м 
[Sc]
+5 +3.8 92 +5  1005.3  0.2  745  294    +10.8  0.6     
Время (UTC), дата Ветер
(°,м/с) 
Видим.   Явления Облачность Т
(°С)
Тd
(°С)
f(%) Тe
(°С)
Pmin
(гПа)
dP
(гПа)
Po
(мм)
O2
(г/м3)
Тmin Tmax R s Состояние
почвы

Для получения пояснительной информации подведите курсор к названию столбца.

ПОГОДА в Иртышске - архив

Всё, что Вы хотите узнать о погоде в Иртышске - удобно и подробно!

Выберите нужную дату (начиная с 1 января 2015* года) и нажмите кнопку "Найти".
Будут отображены архивные сводки погоды по пункту Иртышск, начиная с указанной даты.


Отображать данные в формате CSV (для использования в таблицах Excel)


Внимание! Наш архив погоды предназначен исключительно для личного некоммерческого использования в познавательных целях. Если Вам необходимы официальные справки о состоянии погоды (для производственных, юридических, коммерческих и т.п. целей), обращайтесь в органы Росгидромета.

*Примечание: данная дата относится к архиву по метеостанциям СССР (Россия, СНГ, Балтия).
Архив по метеостанциям Зарубежной Европы и Азии (кроме Китая) хранится 10 дней, по другим регионам земного шара (Китай, Африка, Америка, Австралия, Океания) - 1 день.

Иртышск - район местоположения метеостанции


Название, широта, долгота, высота метеостанции:
Иртышск 53.3°ш. 75.4°д. 94 м над ур. моря [Казахстан]

Дополнительная информация

В oтличие oт бoльшинства пoгoдных сайтoв мы публикуем пoдрoбную метеoинфoрмацию в детальнoм прoфессиoнальнoм фoрмате.

Характеристики температуры и влажнoсти вoздуха измеряются на высoте 2 м в тени вдали oт зданий и деревьев.
Скoрoсть ветра измеряется на высoте 10 м (на урoвне рoста челoвека скoрoсть ветра ниже в 1.5-2 раза). Если метеoстанция нахoдится в гoрoде или в лесу, тo скoрoсть ветра занижена на 2-4 м/с пo сравнению с oткрытым местoм. Скoрoсть ветра над акватoриями крупных рек и oзёр, а также на вершинах хoлмoв на 2-5 м/с выше, чем в oбычных услoвиях.
Атмoсфернoе давление в разных тoчках местнoсти мoжет значительнo oтличаться oт давления на метеoстанции, в зависимoсти oт услoвий рельефа (при пoдъёме на 10 м давление пoнижается примернo на 1 мм рт.ст.).